Weather in Lusaka

Zambia     15°23′44″S   28°19′48″E
temp.,
°C
wind,
m/s
gust,
m/s
humid.,
%
clouds,
%
prec.,
mm/h
press.,
hPa
HPBL,
m
27 october, wed
wed2723:00+25e5124292 0.0 1014756
02:00+23e514505 0.0 1014655
05:00+21e6147181 0.0 1015625
08:00+24e712585 0.0 1017950
11:00+30e67362 0.0 10152230
14:00+32ese66258 0.0 10113237
17:00+30ese67285 0.0 10102364
20:00+25e612465 0.0 1014732
28 october, thu
thu2823:00+23e714475 0.0 10151020
02:00+22e6135328 0.0 1014960
05:00+19e5136511 0.0 1016753
08:00+23e710576 0.0 10181076
11:00+28e663939 0.0 10151979
14:00+32ene442582 0.0 10103285
17:00+29ene562963 0.0 10102482
20:00+25e49435 0.0 1013438
29 october, fri
fri2923:00+23ene411470 0.0 1013463
02:00+21e512490 0.0 1011532
05:00+19e513595 0.0 1013487
08:00+23e584710 0.0 1015728
11:00+30e442999 0.0 10121825
14:00+34ese3520100 0.0 10073320
17:00+31se55245 0.0 10071623
20:00+25ese38375 0.0 1010242
30 october, sat
sat3023:00+23e354172 0.0 1010113
02:00+22ene4104444 0.0 1009288
05:00+20ene5124759 0.0 1010316
08:00+26ene47295 0.0 1012522
11:00+34e342040 0.0 10092489
14:00+34sse541959 0.0 10053403
17:00+33se541986 0.0 10042904
20:00+27ese122926 0.0 100883
31 october, sun
sun3123:00+25ene223314 0.0 100827
02:00+23ese243769 0.0 100891
05:00+24e512367 0.0 1009484
08:00+28ene692871 0.0 1011717
11:00+34ne441915 0.0 10093178
14:00+33s242193 0.2 10062111
17:00+34ese2318100 0.1 10043331
20:00+26ese243279 0.1 1008129